Location: Chilton Park
(37.7711°N, 100.0276°W)
Time: 03:17:17
(UTC+00:00)

Cosmos 2227 Rocket - Pass Details

Date: 11 July 2022
Orbit: 840 x 844 km, 71.0° (Epoch: 13 August)

Event Time Altitude Azimuth Distance (km) Brightness Sun altitude
Exits shadow 06:46:05 23° 83° (E) 1,715 3.8 -30.1°
Drops below altitude 10° 06:49:25 10° 49° (NE) 2,467 5.1 -30.1°
Sets 06:52:15 0° 36° (NE) 3,407 6.1 -30.1°
